START_TIME,STEP,MOV.,H8,t_acc.,H43,t_acc.,M25,t_acc.,H9,t_acc.
1979-07-17 09:00:29.510 ,0,0,0.,12.0,0.,12.0,0.,12.0,0.,12.0
1979-07-17 09:00:41.510 ,0,0,0.,12.0,0.,12.0,0.,12.0,0.,12.0
1979-07-17 09:00:53.510 ,0,0,0.,12.0,0.,12.0,0.,12.0,0.,12.0
1979-07-17 09:01:05.510 ,0,0,0.,12.0,0.,12.0,0.,12.0,0.,12.0
1979-07-17 09:01:17.510 ,0,0,0.,12.0,0.,12.0,0.,12.0,0.,12.0
1979-07-17 09:01:29.510 ,0,0,0.,12.0,0.,12.0,0.,12.0,0.,12.0
1979-07-17 09:01:41.510 ,1,0,0.,12.0,0.,12.0,0.,12.0,0.,12.0
1979-07-17 09:01:53.510 ,1,0,0.,12.0,0.,12.0,0.,12.0,0.,12.0
1979-07-17 09:02:05.510 ,1,0,0.,12.0,0.,12.0,0.,12.0,0.,12.0
1979-07-17 09:02:17.510 ,1,0,0.,12.0,0.,12.0,0.,12.0,0.,12.0
1979-07-17 09:02:29.510 ,2,0,0.,12.0,0.,12.0,0.,12.0,0.,12.0
1979-07-17 09:02:41.510 ,2,0,0.,12.0,0.,12.0,0.,12.0,0.,12.0
1979-07-17 09:02:53.510 ,2,0,0.,12.0,0.,12.0,0.,12.0,0.,12.0
1979-07-17 09:03:05.510 ,2,0,0.,12.0,0.,12.0,0.,12.0,0.,12.0
1979-07-17 09:03:17.510 ,3,0,0.,12.0,0.,12.0,0.,12.0,0.,12.0
1979-07-17 09:03:29.510 ,3,0,0.,12.0,0.,12.0,0.,12.0,0.,12.0
1979-07-17 09:03:41.510 ,3,0,0.,12.0,0.,12.0,0.,12.0,0.,12.0
1979-07-17 09:03:53.510 ,3,0,0.,12.0,0.,12.0,0.,12.0,0.,12.0
1979-07-17 09:04:05.510 ,4,0,0.,12.0,0.,12.0,0.,12.0,0.,12.0
1979-07-17 09:04:17.510 ,4,0,0.,12.0,0.,12.0,0.,12.0,0.,12.0
1979-07-17 09:04:29.510 ,4,0,0.,12.0,0.,12.0,0.,12.0,0.,12.0
1979-07-17 09:04:41.510 ,4,0,0.,12.0,0.,12.0,0.,12.0,0.,12.0
1979-07-17 09:04:53.510 ,5,0,0.,12.0,0.,12.0,0.,12.0,0.,12.0
1979-07-17 09:05:05.510 ,5,0,0.,12.0,0.,12.0,0.,12.0,0.,12.0
1979-07-17 09:05:17.510 ,5,0,0.,12.0,0.,12.0,0.,12.0,0.,12.0
1979-07-17 09:05:29.510 ,5,0,0.,12.0,0.,12.0,0.,12.0,0.,12.0
1979-07-17 09:05:41.510 ,6,0,0.,12.0,0.,12.0,0.,12.0,0.,12.0
1979-07-17 09:05:53.510 ,6,0,0.,12.0,0.,12.0,0.,12.0,0.,12.0
1979-07-17 09:06:05.510 ,6,0,0.,12.0,0.,12.0,0.,12.0,0.,12.0
1979-07-17 09:06:17.510 ,6,0,0.,12.0,0.,12.0,0.,12.0,0.,12.0
1979-07-17 09:06:29.510 ,7,0,0.,12.0,0.,12.0,0.,12.0,0.,12.0
1979-07-17 09:06:41.510 ,7,0,0.,12.0,0.,12.0,0.,12.0,0.,12.0
1979-07-17 09:06:53.510 ,7,0,0.,12.0,0.,12.0,0.,12.0,0.,12.0
1979-07-17 09:07:05.510 ,7,0,0.,12.0,0.,12.0,0.,12.0,0.,12.0
1979-07-17 09:07:17.510 ,3,1,0.,12.0,0.,12.0,0.,12.0,0.,12.0
1979-07-17 09:07:29.510 ,3,1,0.,12.0,0.,12.0,0.,12.0,0.,12.0
1979-07-17 09:07:41.510 ,0,1,1.,12.0,0.,12.0,0.,12.0,0.,12.0
1979-07-17 09:07:53.510 ,0,1,0.,12.0,0.,12.0,0.,12.0,0.,12.0
1979-07-17 09:08:05.510 ,4,1,0.,12.0,0.,12.0,0.,12.0,0.,12.0
1979-07-17 09:08:17.510 ,4,1,0.,12.0,0.,12.0,0.,12.0,0.,12.0
1979-07-17 09:08:29.510 ,7,1,0.,12.0,0.,12.0,0.,12.0,0.,12.0
1979-07-17 09:08:41.510 ,7,1,0.,12.0,0.,12.0,0.,12.0,0.,12.0
1979-07-17 09:08:53.510 ,3,1,0.,12.0,0.,12.0,0.,12.0,0.,12.0
1979-07-17 09:09:05.510 ,3,1,0.,12.0,0.,12.0,0.,12.0,0.,12.0
1979-07-17 09:09:17.510 ,0,1,0.,12.0,0.,12.0,0.,12.0,0.,12.0
1979-07-17 09:09:29.510 ,0,1,0.,12.0,0.,12.0,0.,12.0,0.,12.0
1979-07-17 09:09:41.510 ,4,1,0.,12.0,0.,12.0,0.,12.0,0.,12.0
1979-07-17 09:09:53.510 ,4,1,0.,12.0,0.,12.0,0.,12.0,0.,12.0
1979-07-17 09:10:05.510 ,7,1,0.,12.0,0.,12.0,0.,12.0,0.,12.0
1979-07-17 09:10:17.510 ,7,1,1.,12.0,0.,12.0,0.,12.0,0.,12.0
1979-07-17 09:10:29.510 ,3,1,1.,12.0,0.,12.0,0.,12.0,0.,12.0
1979-07-17 09:10:41.510 ,3,1,0.,12.0,0.,12.0,0.,12.0,0.,12.0
1979-07-17 09:10:53.510 ,0,1,0.,12.0,0.,12.0,0.,12.0,0.,12.0
1979-07-17 09:11:05.510 ,0,1,0.,12.0,0.,12.0,0.,12.0,0.,12.0
1979-07-17 09:11:17.510 ,4,1,0.,12.0,0.,12.0,0.,12.0,0.,12.0
1979-07-17 09:11:29.510 ,4,1,0.,12.0,0.,12.0,0.,12.0,0.,12.0
1979-07-17 09:11:41.510 ,7,1,0.,12.0,0.,12.0,0.,12.0,0.,12.0
1979-07-17 09:11:53.510 ,7,1,0.,12.0,0.,12.0,0.,12.0,0.,12.0
1979-07-17 09:12:05.510 ,3,1,0.,12.0,0.,12.0,0.,12.0,0.,12.0
1979-07-17 09:12:17.510 ,3,1,0.,12.0,0.,12.0,0.,12.0,0.,12.0
1979-07-17 09:12:29.510 ,0,1,0.,12.0,0.,12.0,0.,12.0,0.,12.0
1979-07-17 09:12:41.510 ,0,1,0.,12.0,0.,12.0,0.,12.0,0.,12.0
1979-07-17 09:12:53.510 ,4,1,0.,12.0,0.,12.0,0.,12.0,0.,12.0
1979-07-17 09:13:05.510 ,4,1,0.,12.0,0.,12.0,0.,12.0,0.,12.0
1979-07-17 09:13:17.510 ,7,1,0.,12.0,0.,12.0,0.,12.0,0.,12.0
1979-07-17 09:13:29.510 ,7,1,0.,12.0,0.,12.0,0.,12.0,0.,12.0
1979-07-17 09:13:41.510 ,5,1,0.,12.0,0.,12.0,0.,12.0,0.,12.0
1979-07-17 09:13:53.510 ,5,1,,0,,0,,0,,0
1979-07-17 09:14:05.510 ,0,1,0.,12.0,0.,12.0,0.,12.0,0.,12.0
1979-07-17 09:14:17.510 ,0,1,0.,12.0,0.,12.0,0.,12.0,0.,12.0
1979-07-17 09:14:29.510 ,4,1,0.,12.0,0.,12.0,0.,12.0,0.,12.0
1979-07-17 09:14:41.510 ,4,1,0.,12.0,0.,12.0,0.,12.0,0.,12.0
1979-07-17 09:14:53.510 ,7,1,0.,12.0,0.,12.0,0.,12.0,0.,12.0
1979-07-17 09:15:05.510 ,7,1,0.,12.0,0.,12.0,0.,12.0,0.,12.0
1979-07-17 09:15:17.510 ,3,1,0.,12.0,0.,12.0,0.,12.0,0.,12.0
1979-07-17 09:15:29.510 ,3,1,0.,12.0,0.,12.0,0.,12.0,0.,12.0
1979-07-17 09:15:41.510 ,0,1,0.,12.0,0.,12.0,0.,12.0,0.,12.0
1979-07-17 09:15:53.510 ,0,1,0.,12.0,0.,12.0,0.,12.0,0.,12.0
1979-07-17 09:16:05.510 ,4,1,0.,12.0,0.,12.0,0.,12.0,0.,12.0
1979-07-17 09:16:17.510 ,4,1,0.,12.0,0.,12.0,0.,12.0,0.,12.0
1979-07-17 09:16:29.510 ,7,1,0.,12.0,0.,12.0,0.,12.0,0.,12.0
1979-07-17 09:16:41.510 ,7,1,0.,12.0,0.,12.0,0.,12.0,0.,12.0
1979-07-17 09:16:53.510 ,3,1,0.,12.0,0.,12.0,0.,12.0,0.,12.0
1979-07-17 09:17:05.510 ,3,1,0.,12.0,0.,12.0,0.,12.0,0.,12.0
1979-07-17 09:17:17.510 ,0,1,0.,12.0,0.,12.0,0.,12.0,0.,12.0
1979-07-17 09:17:29.510 ,0,1,0.,12.0,0.,12.0,0.,12.0,0.,12.0
1979-07-17 09:17:41.510 ,0,0,0.,12.0,0.,12.0,0.,12.0,0.,12.0
1979-07-17 09:17:53.510 ,0,0,0.,12.0,0.,12.0,0.,12.0,0.,12.0
1979-07-17 09:18:05.510 ,0,0,0.,12.0,0.,12.0,0.,12.0,0.,12.0
1979-07-17 09:18:17.510 ,0,0,0.,12.0,0.,12.0,0.,12.0,0.,12.0
1979-07-17 09:18:29.510 ,5,0,0.,12.0,0.,12.0,0.,12.0,0.,12.0
1979-07-17 09:18:41.510 ,5,0,0.,12.0,0.,12.0,0.,12.0,0.,12.0
1979-07-17 09:18:53.510 ,5,0,0.,12.0,0.,12.0,0.,12.0,0.,12.0
1979-07-17 09:19:05.510 ,5,0,0.,12.0,0.,12.0,0.,12.0,0.,12.0
1979-07-17 09:19:17.510 ,4,0,0.,12.0,0.,12.0,0.,12.0,0.,12.0
1979-07-17 09:19:29.510 ,4,0,0.,12.0,0.,12.0,0.,12.0,0.,12.0
1979-07-17 09:19:41.510 ,4,0,0.,12.0,0.,12.0,0.,12.0,0.,12.0
1979-07-17 09:19:53.510 ,4,0,1.,12.0,0.,12.0,0.,12.0,0.,12.0
1979-07-17 09:20:05.510 ,3,0,0.,12.0,0.,12.0,0.,12.0,0.,12.0
1979-07-17 09:20:17.510 ,3,0,0.,12.0,0.,12.0,0.,12.0,0.,12.0
1979-07-17 09:20:29.510 ,3,0,0.,12.0,0.,12.0,0.,12.0,0.,12.0
1979-07-17 09:20:41.510 ,3,0,0.,12.0,0.,12.0,0.,12.0,0.,12.0
1979-07-17 09:20:53.510 ,2,0,0.,12.0,0.,12.0,0.,12.0,0.,12.0
1979-07-17 09:21:05.510 ,2,0,0.,12.0,0.,12.0,0.,12.0,0.,12.0
1979-07-17 09:21:17.510 ,2,0,0.,12.0,0.,12.0,0.,12.0,0.,12.0
1979-07-17 09:21:29.510 ,2,0,0.,12.0,0.,12.0,0.,12.0,0.,12.0
1979-07-17 09:21:41.510 ,1,0,0.,12.0,0.,12.0,0.,12.0,0.,12.0
1979-07-17 09:21:53.510 ,1,0,0.,12.0,0.,12.0,0.,12.0,0.,12.0
1979-07-17 09:22:05.510 ,1,0,0.,12.0,0.,12.0,0.,12.0,0.,12.0
1979-07-17 09:22:17.510 ,1,0,0.,12.0,0.,12.0,0.,12.0,0.,12.0
1979-07-17 09:22:29.510 ,0,0,0.,12.0,0.,12.0,0.,12.0,0.,12.0
1979-07-17 09:22:41.510 ,0,0,0.,12.0,0.,12.0,0.,12.0,0.,12.0
1979-07-17 09:22:53.510 ,0,0,0.,12.0,0.,12.0,0.,12.0,0.,12.0
1979-07-17 09:23:05.510 ,0,0,0.,12.0,0.,12.0,0.,12.0,0.,12.0
1979-07-17 09:23:17.510 ,0,0,0.,12.0,0.,12.0,0.,12.0,0.,12.0
1979-07-17 09:23:29.510 ,0,0,0.,12.0,0.,12.0,0.,12.0,0.,12.0
1979-07-17 09:23:41.510 ,0,0,0.,12.0,0.,12.0,0.,12.0,0.,12.0
1979-07-17 09:23:53.510 ,0,0,0.,12.0,0.,12.0,0.,12.0,0.,12.0
1979-07-17 09:24:05.510 ,1,0,0.,12.0,0.,12.0,0.,12.0,0.,12.0
1979-07-17 09:24:17.510 ,1,0,0.,12.0,0.,12.0,0.,12.0,0.,12.0
1979-07-17 09:24:29.510 ,1,0,0.,12.0,0.,12.0,0.,12.0,0.,12.0
1979-07-17 09:24:41.510 ,1,0,0.,12.0,0.,12.0,0.,12.0,0.,12.0
1979-07-17 09:24:53.510 ,2,0,0.,12.0,0.,12.0,0.,12.0,0.,12.0
1979-07-17 09:25:05.510 ,2,0,0.,12.0,0.,12.0,0.,12.0,0.,12.0
1979-07-17 09:25:17.510 ,2,0,0.,12.0,0.,12.0,0.,12.0,0.,12.0
1979-07-17 09:25:29.510 ,2,0,0.,12.0,0.,12.0,0.,12.0,0.,12.0
1979-07-17 09:25:41.510 ,3,0,0.,12.0,0.,12.0,0.,12.0,0.,12.0
1979-07-17 09:25:53.510 ,3,0,0.,12.0,0.,12.0,0.,12.0,0.,12.0
1979-07-17 09:26:05.510 ,3,0,0.,12.0,0.,12.0,0.,12.0,0.,12.0
1979-07-17 09:26:17.510 ,3,0,0.,12.0,0.,12.0,0.,12.0,0.,12.0
1979-07-17 09:26:29.510 ,4,0,0.,12.0,0.,12.0,0.,12.0,0.,12.0
1979-07-17 09:26:41.510 ,4,0,0.,12.0,0.,12.0,0.,12.0,0.,12.0
1979-07-17 09:26:53.510 ,4,0,1.,12.0,0.,12.0,0.,12.0,0.,12.0
1979-07-17 09:27:05.510 ,4,0,0.,12.0,0.,12.0,0.,12.0,0.,12.0
1979-07-17 09:27:17.510 ,5,0,0.,12.0,0.,12.0,0.,12.0,0.,12.0
1979-07-17 09:27:29.510 ,5,0,0.,12.0,0.,12.0,0.,12.0,0.,12.0
1979-07-17 09:27:41.510 ,5,0,0.,12.0,0.,12.0,0.,12.0,0.,12.0
1979-07-17 09:27:53.510 ,5,0,0.,12.0,0.,12.0,0.,12.0,0.,12.0
1979-07-17 09:28:05.510 ,6,0,0.,12.0,0.,12.0,0.,12.0,0.,12.0
1979-07-17 09:28:17.510 ,6,0,0.,12.0,0.,12.0,0.,12.0,0.,12.0
1979-07-17 09:28:29.510 ,6,0,0.,12.0,0.,12.0,0.,12.0,0.,12.0
1979-07-17 09:28:41.510 ,6,0,0.,12.0,0.,12.0,0.,12.0,0.,12.0
1979-07-17 09:28:53.510 ,7,0,0.,12.0,0.,12.0,0.,12.0,0.,12.0
1979-07-17 09:29:05.510 ,7,0,0.,12.0,0.,12.0,0.,12.0,0.,12.0
1979-07-17 09:29:17.510 ,7,0,0.,12.0,0.,12.0,0.,12.0,0.,12.0
1979-07-17 09:29:29.510 ,7,0,0.,12.0,0.,12.0,0.,12.0,0.,12.0
1979-07-17 09:29:41.510 ,7,0,0.,12.0,0.,12.0,0.,12.0,0.,12.0
1979-07-17 09:29:53.510 ,7,0,0.,12.0,0.,12.0,0.,12.0,0.,12.0
1979-07-17 09:30:05.510 ,7,0,0.,12.0,0.,12.0,0.,12.0,0.,12.0
1979-07-17 09:30:17.510 ,7,0,0.,12.0,0.,12.0,0.,12.0,0.,12.0
1979-07-17 09:30:29.510 ,6,0,0.,12.0,0.,12.0,0.,12.0,0.,12.0
1979-07-17 09:30:41.510 ,6,0,0.,12.0,0.,12.0,0.,12.0,0.,12.0
1979-07-17 09:30:53.510 ,6,0,0.,12.0,0.,12.0,0.,12.0,0.,12.0
1979-07-17 09:31:05.510 ,6,0,0.,12.0,0.,12.0,0.,12.0,0.,12.0
1979-07-17 09:31:17.510 ,5,0,0.,12.0,0.,12.0,0.,12.0,0.,12.0
1979-07-17 09:31:29.510 ,5,0,0.,12.0,0.,12.0,0.,12.0,0.,12.0
1979-07-17 09:31:41.510 ,5,0,1.,12.0,0.,12.0,0.,12.0,0.,12.0
1979-07-17 09:31:53.510 ,5,0,0.,12.0,0.,12.0,0.,12.0,0.,12.0
1979-07-17 09:32:05.510 ,4,0,0.,12.0,0.,12.0,0.,12.0,0.,12.0
1979-07-17 09:32:17.510 ,4,0,0.,12.0,0.,12.0,0.,12.0,0.,12.0
1979-07-17 09:32:29.510 ,0,0,0.,12.0,0.,12.0,0.,12.0,0.,12.0
1979-07-17 09:32:41.510 ,0,0,,0,,0,,0,,0
1979-07-17 09:32:53.510 ,3,0,0.,12.0,0.,12.0,0.,12.0,0.,12.0
1979-07-17 09:33:05.510 ,3,0,0.,12.0,0.,12.0,0.,12.0,0.,12.0
1979-07-17 09:33:17.510 ,3,0,0.,12.0,0.,12.0,0.,12.0,0.,12.0
1979-07-17 09:33:29.510 ,3,0,0.,12.0,0.,12.0,0.,12.0,0.,12.0
1979-07-17 09:33:41.500 ,2,0,0.,12.0,0.,12.0,0.,12.0,0.,12.0
1979-07-17 09:33:53.500 ,2,0,0.,12.0,0.,12.0,0.,12.0,0.,12.0
1979-07-17 09:34:05.500 ,2,0,0.,12.0,0.,12.0,0.,12.0,0.,12.0
1979-07-17 09:34:17.500 ,2,0,0.,12.0,0.,12.0,0.,12.0,0.,12.0
1979-07-17 09:34:29.500 ,1,0,0.,12.0,0.,12.0,0.,12.0,0.,12.0
1979-07-17 09:34:41.500 ,1,0,0.,12.0,0.,12.0,0.,12.0,0.,12.0
1979-07-17 09:34:53.500 ,1,0,0.,12.0,0.,12.0,0.,12.0,0.,12.0
1979-07-17 09:35:05.500 ,1,0,0.,12.0,0.,12.0,0.,12.0,0.,12.0
1979-07-17 09:35:17.500 ,0,0,0.,12.0,0.,12.0,0.,12.0,0.,12.0
1979-07-17 09:35:29.500 ,0,0,0.,12.0,0.,12.0,0.,12.0,0.,12.0
1979-07-17 09:35:41.500 ,0,0,0.,12.0,0.,12.0,0.,12.0,0.,12.0
1979-07-17 09:35:53.500 ,0,0,0.,12.0,0.,12.0,0.,12.0,0.,12.0
1979-07-17 09:36:05.500 ,0,0,0.,12.0,0.,12.0,0.,12.0,0.,12.0
1979-07-17 09:36:17.500 ,0,0,0.,12.0,0.,12.0,0.,12.0,0.,12.0
1979-07-17 09:36:29.500 ,0,0,0.,12.0,0.,12.0,0.,12.0,0.,12.0
1979-07-17 09:36:41.500 ,0,0,0.,12.0,0.,12.0,0.,12.0,0.,12.0
1979-07-17 09:36:53.500 ,1,0,0.,12.0,0.,12.0,0.,12.0,0.,12.0
1979-07-17 09:37:05.500 ,1,0,0.,12.0,0.,12.0,0.,12.0,0.,12.0
1979-07-17 09:37:17.500 ,1,0,0.,12.0,0.,12.0,0.,12.0,0.,12.0
1979-07-17 09:37:29.500 ,1,0,0.,12.0,0.,12.0,0.,12.0,0.,12.0
1979-07-17 09:37:41.500 ,2,0,0.,12.0,0.,12.0,0.,12.0,0.,12.0
1979-07-17 09:37:53.500 ,2,0,0.,12.0,0.,12.0,0.,12.0,0.,12.0
1979-07-17 09:38:05.500 ,2,0,0.,12.0,0.,12.0,0.,12.0,0.,12.0
1979-07-17 09:38:17.500 ,2,0,0.,12.0,0.,12.0,0.,12.0,0.,12.0
1979-07-17 09:38:29.500 ,3,0,0.,12.0,0.,12.0,0.,12.0,0.,12.0
1979-07-17 09:38:41.500 ,3,0,0.,12.0,0.,12.0,0.,12.0,0.,12.0
1979-07-17 09:38:53.500 ,3,0,0.,12.0,0.,12.0,0.,12.0,0.,12.0
1979-07-17 09:39:05.500 ,3,0,0.,12.0,0.,12.0,0.,12.0,0.,12.0
1979-07-17 09:39:17.500 ,4,0,0.,12.0,0.,12.0,0.,12.0,0.,12.0
1979-07-17 09:39:29.500 ,4,0,0.,12.0,0.,12.0,0.,12.0,0.,12.0
1979-07-17 09:39:41.500 ,4,0,0.,12.0,0.,12.0,0.,12.0,0.,12.0
1979-07-17 09:39:53.500 ,4,0,0.,12.0,0.,12.0,0.,12.0,0.,12.0
1979-07-17 09:40:05.500 ,5,0,0.,12.0,0.,12.0,0.,12.0,0.,12.0
1979-07-17 09:40:17.500 ,5,0,0.,12.0,0.,12.0,0.,12.0,0.,12.0
1979-07-17 09:40:29.500 ,5,0,0.,12.0,0.,12.0,0.,12.0,0.,12.0
1979-07-17 09:40:41.500 ,5,0,0.,12.0,0.,12.0,0.,12.0,0.,12.0
1979-07-17 09:40:53.500 ,6,0,0.,12.0,0.,12.0,0.,12.0,0.,12.0
1979-07-17 09:41:05.500 ,6,0,0.,12.0,0.,12.0,0.,12.0,0.,12.0
1979-07-17 09:41:17.500 ,6,0,0.,12.0,0.,12.0,0.,12.0,0.,12.0
1979-07-17 09:41:29.500 ,6,0,0.,12.0,0.,12.0,0.,12.0,0.,12.0
1979-07-17 09:41:41.500 ,7,0,0.,12.0,0.,12.0,0.,12.0,0.,12.0
1979-07-17 09:41:53.500 ,7,0,0.,12.0,0.,12.0,0.,12.0,0.,12.0
1979-07-17 09:42:05.500 ,7,0,0.,12.0,0.,12.0,0.,12.0,0.,12.0
1979-07-17 09:42:17.500 ,7,0,0.,12.0,0.,12.0,0.,12.0,0.,12.0
1979-07-17 09:42:29.500 ,7,0,0.,12.0,0.,12.0,0.,12.0,0.,12.0
1979-07-17 09:42:41.500 ,7,0,0.,12.0,0.,12.0,0.,12.0,0.,12.0
1979-07-17 09:42:53.500 ,7,0,0.,12.0,0.,12.0,0.,12.0,0.,12.0
1979-07-17 09:43:05.500 ,7,0,0.,12.0,0.,12.0,0.,12.0,0.,12.0
1979-07-17 09:43:17.500 ,6,0,0.,12.0,0.,12.0,0.,12.0,0.,12.0
1979-07-17 09:43:29.500 ,6,0,0.,12.0,0.,12.0,0.,12.0,0.,12.0
1979-07-17 09:43:41.500 ,6,0,0.,12.0,0.,12.0,0.,12.0,0.,12.0
1979-07-17 09:43:53.500 ,6,0,0.,12.0,0.,12.0,0.,12.0,0.,12.0
1979-07-17 09:44:05.500 ,5,0,0.,12.0,0.,12.0,0.,12.0,0.,12.0
1979-07-17 09:44:17.500 ,5,0,0.,12.0,0.,12.0,0.,12.0,0.,12.0
1979-07-17 09:44:29.500 ,5,0,0.,12.0,0.,12.0,0.,12.0,0.,12.0
1979-07-17 09:44:41.500 ,5,0,0.,12.0,0.,12.0,0.,12.0,0.,12.0
1979-07-17 09:44:53.500 ,4,0,0.,12.0,0.,12.0,0.,12.0,0.,12.0
1979-07-17 09:45:05.500 ,4,0,0.,12.0,0.,12.0,0.,12.0,0.,12.0
1979-07-17 09:45:17.500 ,4,0,0.,12.0,0.,12.0,0.,12.0,0.,12.0
1979-07-17 09:45:29.500 ,4,0,1.,12.0,0.,12.0,0.,12.0,0.,12.0
1979-07-17 09:45:41.500 ,3,0,0.,12.0,0.,12.0,0.,12.0,0.,12.0
1979-07-17 09:45:53.500 ,3,0,0.,12.0,0.,12.0,0.,12.0,0.,12.0
1979-07-17 09:46:05.500 ,3,0,0.,12.0,0.,12.0,0.,12.0,0.,12.0
1979-07-17 09:46:17.500 ,3,0,0.,12.0,0.,12.0,0.,12.0,0.,12.0
1979-07-17 09:46:29.500 ,2,0,0.,12.0,0.,12.0,0.,12.0,0.,12.0
1979-07-17 09:46:41.500 ,2,0,0.,12.0,0.,12.0,0.,12.0,0.,12.0
1979-07-17 09:46:53.500 ,2,0,0.,12.0,0.,12.0,0.,12.0,0.,12.0
1979-07-17 09:47:05.500 ,2,0,0.,12.0,0.,12.0,0.,12.0,0.,12.0
1979-07-17 09:47:17.500 ,1,1,0.,12.0,0.,12.0,0.,12.0,0.,12.0
1979-07-17 09:47:29.500 ,1,1,,0,,0,,0,,0
1979-07-17 09:47:41.500 ,1,0,0.,12.0,0.,12.0,0.,12.0,0.,12.0
1979-07-17 09:47:53.500 ,1,0,0.,12.0,0.,12.0,0.,12.0,0.,12.0
1979-07-17 09:48:05.500 ,0,0,0.,12.0,0.,12.0,0.,12.0,0.,12.0
1979-07-17 09:48:17.500 ,0,0,1.,12.0,0.,12.0,0.,12.0,0.,12.0
1979-07-17 09:48:29.500 ,0,0,0.,12.0,0.,12.0,0.,12.0,0.,12.0
1979-07-17 09:48:41.500 ,0,0,0.,12.0,0.,12.0,0.,12.0,0.,12.0
1979-07-17 09:48:53.500 ,0,0,0.,12.0,0.,12.0,0.,12.0,0.,12.0
1979-07-17 09:49:05.500 ,0,0,0.,12.0,0.,12.0,0.,12.0,0.,12.0
1979-07-17 09:49:17.500 ,0,0,0.,12.0,0.,12.0,0.,12.0,0.,12.0
1979-07-17 09:49:29.500 ,0,0,0.,12.0,0.,12.0,0.,12.0,0.,12.0
1979-07-17 09:49:41.500 ,1,0,0.,12.0,0.,12.0,0.,12.0,0.,12.0
1979-07-17 09:49:53.500 ,1,0,0.,12.0,0.,12.0,0.,12.0,0.,12.0
1979-07-17 09:50:05.500 ,1,0,0.,12.0,0.,12.0,0.,12.0,0.,12.0
1979-07-17 09:50:17.500 ,1,0,1.,12.0,0.,12.0,0.,12.0,0.,12.0
1979-07-17 09:50:29.500 ,2,0,0.,12.0,0.,12.0,0.,12.0,0.,12.0
1979-07-17 09:50:41.500 ,2,0,0.,12.0,0.,12.0,0.,12.0,0.,12.0
1979-07-17 09:50:53.500 ,2,0,0.,12.0,0.,12.0,0.,12.0,0.,12.0
1979-07-17 09:51:05.500 ,2,0,0.,12.0,0.,12.0,0.,12.0,0.,12.0
1979-07-17 09:51:17.500 ,3,0,0.,12.0,0.,12.0,0.,12.0,0.,12.0
1979-07-17 09:51:29.500 ,3,0,0.,12.0,0.,12.0,0.,12.0,0.,12.0
1979-07-17 09:51:41.500 ,3,0,0.,12.0,0.,12.0,0.,12.0,0.,12.0
1979-07-17 09:51:53.500 ,3,0,0.,12.0,0.,12.0,0.,12.0,0.,12.0
1979-07-17 09:52:05.500 ,4,0,0.,12.0,0.,12.0,0.,12.0,0.,12.0
1979-07-17 09:52:17.500 ,4,0,0.,12.0,0.,12.0,0.,12.0,0.,12.0
1979-07-17 09:52:29.500 ,4,0,0.,12.0,0.,12.0,0.,12.0,0.,12.0
1979-07-17 09:52:41.500 ,4,0,0.,12.0,0.,12.0,0.,12.0,0.,12.0
1979-07-17 09:52:53.500 ,5,0,0.,12.0,0.,12.0,0.,12.0,0.,12.0
1979-07-17 09:53:05.500 ,5,0,0.,12.0,0.,12.0,0.,12.0,0.,12.0
1979-07-17 09:53:17.500 ,5,0,0.,12.0,0.,12.0,0.,12.0,0.,12.0
1979-07-17 09:53:29.500 ,5,0,0.,12.0,0.,12.0,0.,12.0,0.,12.0
1979-07-17 09:53:41.500 ,6,0,0.,12.0,0.,12.0,0.,12.0,0.,12.0
1979-07-17 09:53:53.500 ,6,0,0.,12.0,0.,12.0,0.,12.0,0.,12.0
1979-07-17 09:54:05.500 ,6,0,1.,12.0,0.,12.0,0.,12.0,0.,12.0
1979-07-17 09:54:17.500 ,6,0,0.,12.0,0.,12.0,0.,12.0,0.,12.0
1979-07-17 09:54:29.500 ,7,0,0.,12.0,0.,12.0,0.,12.0,0.,12.0
1979-07-17 09:54:41.500 ,7,0,0.,12.0,0.,12.0,0.,12.0,0.,12.0
1979-07-17 09:54:53.500 ,7,0,0.,12.0,0.,12.0,0.,12.0,0.,12.0
1979-07-17 09:55:05.500 ,7,0,0.,12.0,0.,12.0,0.,12.0,0.,12.0
1979-07-17 09:55:17.500 ,3,1,0.,12.0,0.,12.0,0.,12.0,0.,12.0
1979-07-17 09:55:29.500 ,3,1,0.,12.0,0.,12.0,0.,12.0,0.,12.0
1979-07-17 09:55:41.500 ,0,1,0.,12.0,0.,12.0,0.,12.0,0.,12.0
1979-07-17 09:55:53.500 ,0,1,0.,12.0,0.,12.0,0.,12.0,0.,12.0
1979-07-17 09:56:05.500 ,4,1,0.,12.0,0.,12.0,0.,12.0,0.,12.0
1979-07-17 09:56:17.500 ,4,1,0.,12.0,0.,12.0,0.,12.0,0.,12.0
1979-07-17 09:56:29.500 ,7,1,0.,12.0,0.,12.0,0.,12.0,0.,12.0
1979-07-17 09:56:41.500 ,7,1,0.,12.0,0.,12.0,0.,12.0,0.,12.0
1979-07-17 09:56:53.500 ,3,1,0.,12.0,0.,12.0,0.,12.0,0.,12.0
1979-07-17 09:57:05.500 ,3,1,0.,12.0,0.,12.0,0.,12.0,0.,12.0
1979-07-17 09:57:17.500 ,0,1,0.,12.0,0.,12.0,0.,12.0,0.,12.0
1979-07-17 09:57:29.500 ,0,1,0.,12.0,0.,12.0,0.,12.0,0.,12.0
1979-07-17 09:57:41.500 ,4,1,0.,12.0,0.,12.0,0.,12.0,0.,12.0
1979-07-17 09:57:53.500 ,4,1,0.,12.0,0.,12.0,0.,12.0,0.,12.0
1979-07-17 09:58:05.500 ,7,1,0.,12.0,0.,12.0,0.,12.0,0.,12.0
1979-07-17 09:58:17.500 ,7,1,0.,12.0,0.,12.0,0.,12.0,0.,12.0
1979-07-17 09:58:29.500 ,3,1,1.,12.0,0.,12.0,0.,12.0,0.,12.0
1979-07-17 09:58:41.500 ,3,1,0.,12.0,0.,12.0,0.,12.0,0.,12.0
1979-07-17 09:58:53.500 ,0,1,0.,12.0,0.,12.0,0.,12.0,0.,12.0
1979-07-17 09:59:05.500 ,0,1,0.,12.0,0.,12.0,0.,12.0,0.,12.0
1979-07-17 09:59:17.500 ,4,1,0.,12.0,0.,12.0,0.,12.0,0.,12.0
1979-07-17 09:59:29.500 ,4,1,0.,12.0,0.,12.0,0.,12.0,0.,12.0
1979-07-17 09:59:41.500 ,7,1,0.,12.0,0.,12.0,0.,12.0,0.,12.0
1979-07-17 09:59:53.500 ,7,1,0.,12.0,0.,12.0,0.,12.0,0.,12.0
1979-07-17 10:00:05.500 ,3,1,0.,12.0,0.,12.0,0.,12.0,0.,12.0
1979-07-17 10:00:17.500 ,3,1,0.,12.0,0.,12.0,0.,12.0,0.,12.0
1979-07-17 10:00:29.500 ,0,1,0.,12.0,0.,12.0,0.,12.0,0.,12.0
1979-07-17 10:00:41.500 ,0,1,0.,12.0,0.,12.0,0.,12.0,0.,12.0
1979-07-17 10:00:53.500 ,4,1,0.,12.0,0.,12.0,0.,12.0,0.,12.0
1979-07-17 10:01:05.500 ,4,1,0.,12.0,0.,12.0,0.,12.0,0.,12.0
1979-07-17 10:01:17.500 ,7,1,0.,12.0,0.,12.0,0.,12.0,0.,12.0
1979-07-17 10:01:29.500 ,7,1,0.,12.0,0.,12.0,0.,12.0,0.,12.0
1979-07-17 10:01:41.500 ,3,1,0.,12.0,0.,12.0,0.,12.0,0.,12.0
1979-07-17 10:01:53.500 ,3,1,0.,12.0,0.,12.0,0.,12.0,0.,12.0
1979-07-17 10:02:05.500 ,0,1,0.,12.0,0.,12.0,0.,12.0,0.,12.0
1979-07-17 10:02:17.500 ,0,1,0.,12.0,0.,12.0,0.,12.0,0.,12.0
1979-07-17 10:02:29.500 ,4,1,0.,12.0,0.,12.0,0.,12.0,0.,12.0
1979-07-17 10:02:41.500 ,4,1,0.,12.0,0.,12.0,0.,12.0,0.,12.0
1979-07-17 10:02:53.500 ,7,1,0.,12.0,0.,12.0,0.,12.0,0.,12.0
1979-07-17 10:03:05.500 ,7,1,0.,12.0,0.,12.0,0.,12.0,0.,12.0
1979-07-17 10:03:17.500 ,3,1,0.,12.0,0.,12.0,0.,12.0,0.,12.0
1979-07-17 10:03:29.500 ,3,1,0.,12.0,0.,12.0,0.,12.0,0.,12.0
1979-07-17 10:03:41.500 ,0,1,0.,12.0,0.,12.0,0.,12.0,0.,12.0
1979-07-17 10:03:53.500 ,0,1,0.,12.0,0.,12.0,0.,12.0,0.,12.0
1979-07-17 10:04:05.500 ,4,1,0.,12.0,0.,12.0,0.,12.0,0.,12.0
1979-07-17 10:04:17.500 ,4,1,0.,12.0,0.,12.0,0.,12.0,0.,12.0
1979-07-17 10:04:29.500 ,7,1,0.,12.0,0.,12.0,0.,12.0,0.,12.0
1979-07-17 10:04:41.500 ,7,1,0.,12.0,0.,12.0,0.,12.0,0.,12.0
1979-07-17 10:04:53.500 ,3,1,0.,12.0,0.,12.0,0.,12.0,0.,12.0
1979-07-17 10:05:05.500 ,3,1,0.,12.0,0.,12.0,0.,12.0,0.,12.0
1979-07-17 10:05:17.500 ,0,1,0.,12.0,0.,12.0,0.,12.0,0.,12.0
1979-07-17 10:05:29.500 ,0,1,0.,12.0,0.,12.0,0.,12.0,0.,12.0
1979-07-17 10:05:41.500 ,0,0,0.,12.0,0.,12.0,0.,12.0,0.,12.0
1979-07-17 10:05:53.500 ,0,0,0.,12.0,0.,12.0,0.,12.0,0.,12.0
1979-07-17 10:06:05.500 ,0,0,0.,12.0,0.,12.0,0.,12.0,0.,12.0
1979-07-17 10:06:17.500 ,0,0,0.,12.0,0.,12.0,0.,12.0,0.,12.0
1979-07-17 10:06:29.500 ,5,0,0.,12.0,0.,12.0,0.,12.0,0.,12.0
1979-07-17 10:06:41.500 ,5,0,0.,12.0,0.,12.0,0.,12.0,0.,12.0
1979-07-17 10:06:53.500 ,5,0,0.,12.0,0.,12.0,0.,12.0,0.,12.0
1979-07-17 10:07:05.500 ,5,0,0.,12.0,0.,12.0,0.,12.0,0.,12.0
1979-07-17 10:07:17.500 ,4,0,0.,12.0,0.,12.0,0.,12.0,0.,12.0
1979-07-17 10:07:29.500 ,4,0,0.,12.0,0.,12.0,0.,12.0,0.,12.0
1979-07-17 10:07:41.500 ,4,0,0.,12.0,0.,12.0,0.,12.0,0.,12.0
1979-07-17 10:07:53.500 ,4,0,0.,12.0,0.,12.0,0.,12.0,0.,12.0
1979-07-17 10:08:05.500 ,3,0,0.,12.0,0.,12.0,0.,12.0,0.,12.0
1979-07-17 10:08:17.500 ,3,0,0.,12.0,0.,12.0,0.,12.0,0.,12.0
1979-07-17 10:08:29.500 ,3,0,0.,12.0,0.,12.0,0.,12.0,0.,12.0
1979-07-17 10:08:41.500 ,3,0,0.,12.0,0.,12.0,0.,12.0,0.,12.0
1979-07-17 10:08:53.500 ,2,0,1.,12.0,0.,12.0,0.,12.0,0.,12.0
1979-07-17 10:09:05.500 ,2,0,0.,12.0,0.,12.0,0.,12.0,0.,12.0
1979-07-17 10:09:17.500 ,2,0,0.,12.0,0.,12.0,0.,12.0,0.,12.0
1979-07-17 10:09:29.500 ,2,0,0.,12.0,0.,12.0,0.,12.0,0.,12.0
1979-07-17 10:09:41.500 ,1,0,0.,12.0,0.,12.0,0.,12.0,0.,12.0
1979-07-17 10:09:53.500 ,1,0,0.,12.0,0.,12.0,0.,12.0,0.,12.0
1979-07-17 10:10:05.500 ,1,0,0.,12.0,0.,12.0,0.,12.0,0.,12.0
1979-07-17 10:10:17.500 ,1,0,0.,12.0,0.,12.0,0.,12.0,0.,12.0
1979-07-17 10:10:29.500 ,0,0,0.,12.0,0.,12.0,0.,12.0,0.,12.0
1979-07-17 10:10:41.500 ,0,0,0.,12.0,0.,12.0,0.,12.0,0.,12.0
1979-07-17 10:10:53.500 ,0,0,0.,12.0,0.,12.0,0.,12.0,0.,12.0
1979-07-17 10:11:05.500 ,0,0,0.,12.0,0.,12.0,0.,12.0,0.,12.0
1979-07-17 10:11:17.500 ,0,0,0.,12.0,0.,12.0,0.,12.0,0.,12.0
1979-07-17 10:11:29.500 ,0,0,0.,12.0,0.,12.0,0.,12.0,0.,12.0
1979-07-17 10:11:41.500 ,0,0,0.,12.0,0.,12.0,0.,12.0,0.,12.0
1979-07-17 10:11:53.500 ,0,0,0.,12.0,0.,12.0,0.,12.0,0.,12.0
1979-07-17 10:12:05.500 ,1,0,0.,12.0,0.,12.0,0.,12.0,0.,12.0
1979-07-17 10:12:17.500 ,1,0,0.,12.0,0.,12.0,0.,12.0,0.,12.0
1979-07-17 10:12:29.500 ,1,0,0.,12.0,0.,12.0,0.,12.0,0.,12.0
1979-07-17 10:12:41.500 ,1,0,0.,12.0,0.,12.0,0.,12.0,0.,12.0
1979-07-17 10:12:53.500 ,2,0,0.,12.0,0.,12.0,0.,12.0,0.,12.0
1979-07-17 10:13:05.500 ,2,0,0.,12.0,0.,12.0,0.,12.0,0.,12.0
1979-07-17 10:13:17.500 ,2,0,0.,12.0,0.,12.0,0.,12.0,0.,12.0
1979-07-17 10:13:29.500 ,2,0,0.,12.0,0.,12.0,0.,12.0,0.,12.0
1979-07-17 10:13:41.500 ,3,0,0.,12.0,0.,12.0,0.,12.0,0.,12.0
1979-07-17 10:13:53.500 ,3,0,0.,12.0,0.,12.0,0.,12.0,0.,12.0
1979-07-17 10:14:05.500 ,3,0,0.,12.0,0.,12.0,0.,12.0,0.,12.0
1979-07-17 10:14:17.500 ,3,0,0.,12.0,0.,12.0,0.,12.0,0.,12.0
1979-07-17 10:14:29.500 ,4,0,0.,12.0,0.,12.0,0.,12.0,0.,12.0
1979-07-17 10:14:41.500 ,4,0,0.,12.0,0.,12.0,0.,12.0,0.,12.0
1979-07-17 10:14:53.500 ,4,0,0.,12.0,0.,12.0,0.,12.0,0.,12.0
1979-07-17 10:15:05.500 ,4,0,0.,12.0,0.,12.0,0.,12.0,0.,12.0
1979-07-17 10:15:17.500 ,5,0,0.,12.0,0.,12.0,0.,12.0,0.,12.0
1979-07-17 10:15:29.500 ,5,0,0.,12.0,0.,12.0,0.,12.0,0.,12.0
1979-07-17 10:15:41.500 ,5,0,0.,12.0,0.,12.0,0.,12.0,0.,12.0
1979-07-17 10:15:53.500 ,5,0,0.,12.0,0.,12.0,0.,12.0,0.,12.0
1979-07-17 10:16:05.500 ,6,0,0.,12.0,0.,12.0,0.,12.0,0.,12.0
1979-07-17 10:16:17.500 ,6,0,0.,12.0,0.,12.0,0.,12.0,0.,12.0
1979-07-17 10:16:29.500 ,6,0,0.,12.0,0.,12.0,0.,12.0,0.,12.0
1979-07-17 10:16:41.500 ,6,0,0.,12.0,0.,12.0,0.,12.0,0.,12.0
1979-07-17 10:16:53.500 ,7,0,0.,12.0,0.,12.0,0.,12.0,0.,12.0
1979-07-17 10:17:05.500 ,7,0,0.,12.0,0.,12.0,0.,12.0,0.,12.0
1979-07-17 10:17:17.500 ,7,0,0.,12.0,0.,12.0,0.,12.0,0.,12.0
1979-07-17 10:17:29.500 ,7,0,0.,12.0,0.,12.0,0.,12.0,0.,12.0
1979-07-17 10:17:41.500 ,7,0,0.,12.0,0.,12.0,0.,12.0,0.,12.0